{"data":{"norad_id":51656,"epoch":"2026-09-20T22:43:51.282912Z","epoch_age_seconds":77498,"freshness":"FRESH","line1":"1 51656U 22013A   26263.94712133  .00001448  00000+0  86340-4 0  9991","line2":"2 51656  97.5161 269.1510 0001862  86.6356 273.5088 15.12723113253963","mean_motion":15.12723113,"eccentricity":0.0001862,"inclination_deg":97.5161,"raan_deg":269.151,"arg_perigee_deg":86.6356,"mean_anomaly_deg":273.5088,"bstar":8.634e-5,"rev_number":25396,"period_min":95.192569454712,"perigee_km":526.61375893086,"apogee_km":529.18556698415,"semimajor_km":6906.0366629575,"source":"CELESTRAK","updated_at":"2026-09-21T09:00:08.308335Z"}}